Temp
-17 -17 -17 -17 -17 -17 -17 -16 -16 -17 -16 -16 -16 -16 -17 -17 -16 -16 -16 -16 -16 -16 -16 -16 -16 -16 -16 -15 -15 -14 -14 -14 -14 -14 -14 -15 -15 -14 -14 -14 -15 -15 -14 -14
-17 -17 -17 -17 -17 -17 -17 -17 -17 -17 -17 -16 -16 -16 -16 -16 -16 -16 -16 -16 -16 -16 -16 -16 -16 -16 -15 -15 -15 -15 -15 -15 -15 -15 -15 -16 -15 -15 -15 -15 -15 -15 -15 -15
-17 -17 -17 -17 -17 -17 -17 -16 -16 -16 -17 -16 -16 -16 -16 -16 -16 -16 -16 -16 -16 -16 -16 -16 -16 -15 -15 -15 -15 -15 -15 -15 -15 -15 -15 -15 -15 -15 -15 -16 -16 -16 -16 -16
-16 -16 -16 -16 -16 -16 -16 -16 -16 -16 -16 -16 -17 -17 -16 -16 -16 -16 -16 -15 -15 -15 -16 -16 -15 -15 -14 -14 -14 -14 -15 -15 -15 -15 -15 -15 -15 -15 -15 -16 -16 -16 -16 -17
-15 -15 -15 -15 -15 -15 -15 -16 -16 -15 -15 -15 -15 -15 -15 -16 -15 -15 -15 -15 -15 -15 -15 -15 -14 -14 -14 -14 -14 -14 -14 -14 -14 -15 -15 -15 -15 -16 -16 -16 -17 -17 -17 -17
-15 -15 -15 -15 -15 -15 -15 -15 -15 -15 -15 -15 -15 -15 -15 -15 -14 -14 -14 -14 -14 -14 -14 -14 -14 -14 -14 -14 -15 -15 -15 -15 -15 -15 -16 -16 -16 -16 -17 -17 -18 -18 -18 -19
-14 -15 -15 -15 -15 -15 -15 -15 -15 -15 -15 -15 -15 -14 -14 -14 -14 -14 -14 -14 -14 -14 -14 -14 -14 -14 -14 -14 -14 -14 -14 -14 -14 -15 -15 -15 -15 -16 -16 -18 -19 -20 -20 -20
-14 -14 -14 -14 -15 -15 -14 -14 -14 -14 -15 -15 -15 -15 -14 -14 -14 -14 -14 -14 -14 -15 -14 -14 -14 -14 -15 -15 -15 -15 -15 -16 -16 -16 -17 -18 -19 -21 -21 -22 -22 -23 -23 -23
-14 -14 -14 -14 -14 -14 -14 -14 -14 -14 -14 -14 -14 -14 -14 -14 -14 -14 -14 -14 -14 -14 -14 -14 -15 -15 -15 -15 -15 -15 -16 -16 -17 -19 -22 -22 -23 -23 -24 -24 -24 -24 -24 -25
-13 -13 -13 -14 -14 -14 -14 -14 -14 -14 -14 -14 -14 -14 -14 -14 -14 -14 -14 -15 -15 -15 -15 -16 -16 -16 -17 -17 -16 -16 -17 -18 -21 -22 -23 -25 -26 -26 -26 -26 -27 -27 -27 -27
-13 -13 -13 -13 -14 -14 -14 -14 -14 -14 -14 -15 -14 -14 -15 -15 -15 -15 -15 -15 -15 -15 -16 -16 -17 -17 -17 -17 -17 -19 -21 -23 -23 -25 -26 -27 -27 -27 -27 -27 -27 -27 -27 -27
-13 -13 -13 -14 -14 -14 -14 -14 -14 -14 -14 -15 -15 -15 -15 -15 -15 -15 -16 -16 -16 -16 -16 -17 -17 -17 -17 -18 -20 -22 -24 -25 -26 -26 -27 -27 -28 -28 -28 -27 -27 -27 -27 -27
-13 -13 -14 -14 -14 -14 -14 -14 -15 -15 -15 -15 -15 -15 -15 -15 -16 -16 -16 -16 -16 -16 -17 -17 -17 -17 -19 -21 -23 -25 -26 -27 -27 -27 -27 -28 -29 -28 -28 -28 -28 -27 -27 -27
-13 -14 -14 -14 -14 -14 -15 -15 -15 -15 -15 -15 -15 -15 -15 -16 -16 -16 -16 -17 -17 -17 -17 -17 -17 -18 -21 -23 -25 -26 -27 -28 -29 -29 -29 -29 -30 -30 -29 -29 -29 -29 -28 -28
-14 -14 -14 -15 -15 -15 -15 -15 -15 -15 -15 -15 -15 -16 -16 -16 -16 -17 -17 -17 -17 -17 -17 -17 -18 -21 -23 -25 -25 -26 -27 -28 -30 -30 -31 -31 -31 -31 -31 -30 -30 -30 -29 -29
-14 -15 -15 -15 -15 -15 -15 -16 -16 -16 -16 -16 -16 -16 -16 -16 -17 -17 -17 -17 -17 -17 -17 -18 -21 -24 -26 -26 -26 -27 -28 -29 -30 -31 -32 -32 -32 -32 -32 -32 -31 -31 -30 -30
-15 -15 -15 -16 -16 -16 -16 -16 -16 -16 -16 -16 -16 -17 -17 -17 -17 -17 -17 -17 -18 -17 -19 -21 -24 -27 -27 -27 -28 -28 -29 -30 -31 -32 -33 -33 -33 -33 -33 -33 -33 -32 -32 -31
-16 -16 -16 -16 -16 -16 -16 -16 -17 -17 -17 -17 -17 -17 -17 -17 -17 -18 -17 -17 -18 -18 -20 -23 -26 -28 -28 -28 -28 -29 -30 -31 -32 -33 -33 -33 -34 -34 -34 -34 -34 -34 -33 -32
-17 -17 -17 -17 -17 -17 -17 -17 -17 -18 -18 -18 -17 -17 -18 -18 -18 -18 -17 -17 -18 -20 -23 -26 -28 -28 -28 -29 -29 -30 -31 -32 -32 -32 -33 -33 -34 -34 -34 -34 -34 -34 -34 -33
-17 -18 -18 -18 -18 -18 -18 -18 -18 -18 -19 -19 -18 -18 -18 -18 -18 -18 -18 -18 -19 -21 -24 -26 -28 -28 -28 -29 -30 -31 -31 -32 -33 -33 -33 -33 -34 -34 -34 -34 -34 -34 -33 -33
-18 -19 -19 -19 -19 -19 -19 -19 -19 -19 -20 -19 -19 -19 -19 -19 -18 -18 -19 -19 -22 -24 -26 -27 -28 -28 -29 -30 -31 -31 -32 -32 -33 -33 -34 -34 -33 -33 -34 -34 -34 -34 -33 -33
-20 -20 -20 -20 -21 -21 -20 -20 -19 -20 -20 -20 -20 -19 -19 -19 -19 -18 -19 -20 -23 -25 -27 -28 -28 -29 -30 -30 -31 -32 -33 -33 -33 -33 -33 -34 -34 -33 -33 -33 -33 -33 -33 -33
-21 -22 -22 -22 -21 -21 -20 -20 -20 -21 -21 -20 -20 -20 -20 -19 -19 -20 -21 -23 -25 -26 -27 -28 -28 -29 -30 -31 -32 -32 -33 -33 -33 -33 -33 -33 -33 -33 -33 -33 -33 -33 -33 -33
-22 -23 -22 -21 -21 -21 -21 -20 -20 -21 -21 -21 -20 -20 -20 -20 -19 -20 -21 -23 -25 -27 -28 -28 -29 -29 -30 -31 -32 -33 -33 -33 -33 -33 -33 -33 -33 -33 -33 -33 -33 -33 -33 -32
-21 -22 -22 -22 -21 -21 -21 -21 -21 -22 -22 -21 -20 -20 -20 -20 -21 -21 -23 -25 -26 -27 -28 -28 -29 -29 -30 -31 -32 -32 -33 -34 -34 -34 -34 -34 -34 -34 -34 -34 -34 -34 -33 -32
-22 -22 -22 -22 -22 -22 -21 -21 -21 -22 -22 -21 -21 -20 -20 -20 -21 -21 -24 -25 -26 -27 -28 -28 -29 -29 -30 -30 -31 -32 -32 -33 -33 -34 -34 -34 -34 -34 -33 -33 -33 -33 -32 -31
-22 -22 -22 -22 -22 -22 -22 -21 -22 -23 -22 -21 -21 -21 -20 -21 -21 -22 -25 -26 -27 -27 -28 -28 -28 -28 -29 -30 -30 -31 -31 -32 -32 -32 -33 -32 -32 -32 -32 -32 -32 -31 -30 -30
Height
5653 5651 5649 5648 5645 5644 5643 5643 5643 5643 5641 5641 5641 5641 5642 5643 5643 5644 5644 5646 5647 5648 5650 5650 5650 5650 5651 5652 5653 5653 5653 5652 5653 5654 5654 5652 5653 5654 5655 5654 5654 5655 5655 5655
5655 5653 5651 5649 5647 5644 5644 5644 5643 5643 5643 5643 5643 5643 5644 5645 5645 5646 5646 5646 5646 5647 5647 5647 5648 5648 5647 5648 5647 5646 5645 5645 5644 5644 5642 5640 5641 5640 5639 5640 5641 5641 5640 5640
5656 5654 5653 5651 5648 5647 5645 5644 5644 5643 5643 5643 5644 5644 5644 5646 5646 5647 5647 5647 5646 5646 5646 5644 5644 5643 5643 5641 5639 5637 5634 5633 5632 5629 5627 5625 5624 5625 5623 5624 5624 5622 5622 5623
5655 5654 5653 5652 5649 5647 5645 5643 5641 5642 5643 5643 5643 5642 5642 5642 5643 5643 5642 5641 5640 5640 5638 5635 5633 5635 5633 5631 5630 5627 5625 5620 5617 5615 5613 5609 5607 5605 5604 5603 5602 5604 5602 5602
5656 5654 5654 5651 5649 5648 5646 5645 5643 5641 5640 5640 5640 5639 5640 5639 5638 5637 5636 5636 5634 5632 5631 5631 5631 5628 5625 5623 5622 5615 5615 5612 5605 5601 5595 5592 5586 5583 5580 5579 5577 5577 5577 5578
5656 5655 5654 5652 5650 5649 5647 5646 5644 5642 5640 5639 5638 5638 5636 5634 5632 5631 5629 5627 5626 5624 5622 5620 5618 5616 5612 5607 5603 5597 5594 5588 5582 5575 5570 5566 5562 5558 5554 5552 5550 5550 5550 5550
5657 5655 5654 5652 5650 5648 5647 5648 5642 5641 5639 5637 5636 5635 5634 5632 5630 5629 5627 5625 5622 5619 5615 5612 5607 5600 5594 5588 5580 5574 5566 5562 5557 5550 5546 5540 5534 5527 5520 5516 5515 5515 5517 5520
5657 5655 5654 5651 5649 5647 5645 5643 5641 5640 5638 5636 5634 5631 5629 5627 5625 5623 5620 5617 5614 5610 5606 5601 5596 5590 5583 5576 5569 5561 5552 5541 5530 5521 5511 5503 5496 5493 5489 5486 5485 5485 5485 5490
5656 5654 5652 5649 5647 5645 5642 5641 5639 5637 5634 5633 5630 5628 5625 5622 5619 5616 5613 5610 5605 5600 5595 5589 5582 5575 5568 5559 5549 5539 5529 5517 5503 5488 5476 5468 5462 5458 5456 5453 5453 5454 5454 5458
5654 5652 5649 5647 5644 5643 5640 5638 5636 5634 5632 5629 5627 5624 5621 5618 5614 5610 5605 5600 5595 5589 5582 5575 5565 5555 5545 5534 5521 5508 5495 5480 5468 5458 5450 5442 5436 5431 5427 5425 5424 5424 5427 5431
5650 5648 5646 5644 5641 5640 5638 5635 5632 5630 5627 5624 5620 5617 5614 5609 5605 5600 5595 5588 5582 5574 5565 5556 5545 5532 5519 5504 5488 5472 5458 5447 5438 5429 5422 5418 5414 5411 5409 5407 5404 5403 5403 5406
5645 5643 5641 5640 5638 5635 5632 5630 5627 5624 5621 5617 5613 5609 5604 5599 5593 5588 5581 5574 5566 5558 5548 5536 5524 5509 5491 5472 5453 5438 5428 5419 5411 5405 5400 5397 5395 5393 5389 5389 5387 5386 5386 5386
5639 5637 5635 5633 5630 5629 5626 5623 5620 5616 5612 5609 5605 5601 5596 5590 5583 5576 5568 5560 5550 5541 5529 5515 5501 5484 5463 5443 5426 5412 5400 5392 5386 5380 5377 5375 5374 5374 5374 5370 5371 5371 5372 5372
5632 5630 5627 5625 5623 5620 5618 5615 5611 5607 5603 5599 5596 5591 5586 5579 5571 5563 5554 5545 5534 5522 5508 5493 5476 5457 5437 5418 5399 5383 5370 5361 5354 5351 5349 5349 5349 5350 5352 5355 5355 5355 5356 5359
5623 5621 5619 5616 5613 5611 5608 5605 5601 5598 5593 5589 5584 5579 5573 5566 5558 5549 5539 5528 5516 5503 5487 5469 5450 5430 5410 5392 5376 5362 5347 5337 5329 5325 5324 5324 5325 5326 5328 5331 5335 5339 5341 5341
5613 5611 5609 5607 5604 5600 5597 5594 5591 5587 5582 5578 5572 5566 5560 5552 5543 5533 5522 5510 5497 5481 5464 5444 5423 5404 5388 5376 5363 5348 5334 5321 5314 5310 5307 5305 5305 5305 5307 5309 5313 5318 5323 5326
5602 5601 5599 5596 5594 5592 5589 5585 5581 5576 5572 5567 5561 5554 5547 5539 5529 5517 5504 5491 5474 5457 5440 5420 5403 5387 5376 5364 5351 5339 5327 5315 5306 5300 5296 5293 5291 5291 5290 5292 5295 5298 5303 5307
5591 5590 5588 5586 5583 5581 5578 5574 5570 5565 5561 5555 5549 5542 5535 5525 5515 5503 5490 5474 5457 5438 5421 5402 5386 5374 5363 5352 5340 5330 5320 5310 5302 5296 5290 5285 5282 5280 5279 5279 5280 5283 5286 5290
5579 5578 5577 5575 5572 5569 5565 5562 5558 5553 5548 5543 5537 5529 5522 5512 5501 5488 5474 5457 5440 5422 5404 5388 5374 5363 5352 5340 5330 5320 5312 5304 5297 5291 5284 5279 5275 5272 5270 5270 5270 5271 5274 5277
5568 5567 5565 5563 5560 5558 5554 5551 5546 5541 5537 5531 5525 5517 5508 5498 5487 5472 5457 5443 5426 5409 5392 5379 5366 5354 5343 5331 5321 5312 5303 5296 5289 5284 5279 5274 5270 5267 5264 5263 5263 5263 5264 5267
5557 5555 5554 5551 5548 5546 5543 5539 5534 5529 5525 5520 5513 5505 5496 5485 5473 5460 5444 5426 5411 5396 5381 5368 5357 5347 5335 5324 5314 5304 5295 5287 5280 5274 5270 5266 5263 5261 5259 5257 5257 5256 5258 5260
5548 5546 5543 5540 5537 5535 5531 5528 5523 5518 5514 5509 5502 5494 5485 5473 5459 5446 5433 5418 5402 5387 5374 5362 5350 5338 5328 5317 5307 5297 5288 5280 5274 5267 5262 5258 5255 5252 5251 5251 5251 5252 5253 5254
5536 5535 5532 5529 5526 5523 5520 5517 5512 5508 5504 5498 5491 5483 5473 5463 5450 5435 5419 5405 5392 5378 5366 5355 5344 5333 5322 5311 5301 5292 5283 5275 5268 5262 5257 5252 5248 5245 5243 5242 5244 5246 5248 5250
5523 5521 5519 5518 5515 5513 5510 5506 5502 5499 5494 5488 5481 5473 5463 5450 5439 5426 5413 5399 5385 5371 5360 5350 5340 5329 5318 5308 5297 5287 5278 5271 5264 5258 5253 5248 5245 5242 5240 5239 5238 5238 5240 5242
5511 5510 5508 5506 5505 5504 5501 5497 5493 5489 5485 5479 5472 5463 5453 5442 5429 5416 5403 5391 5378 5367 5356 5346 5336 5326 5315 5305 5295 5285 5276 5268 5261 5255 5249 5243 5239 5236 5233 5232 5232 5233 5234 5237
5502 5500 5497 5494 5495 5493 5490 5487 5483 5479 5474 5469 5462 5454 5444 5433 5421 5409 5396 5384 5373 5363 5352 5344 5334 5325 5315 5306 5296 5286 5277 5268 5261 5255 5249 5244 5239 5236 5234 5232 5232 5233 5235 5239
5490 5488 5487 5486 5486 5483 5480 5477 5473 5470 5465 5460 5452 5444 5434 5423 5412 5400 5389 5379 5369 5359 5350 5342 5335 5326 5317 5308 5299 5290 5281 5273 5266 5259 5254 5250 5247 5244 5243 5243 5243 5245 5249 5254
Wind_Speed
9 9 10 9 11 11 12 10 11 9 11 12 13 11 9 7 4 3 3 3 4 6 7 11 13 13 15 15 19 21 23 25 26 30 33 34 34 36 36 37 38 39 40 42
6 7 9 11 10 11 11 9 9 8 9 7 6 7 6 5 4 2 3 5 7 9 11 13 15 18 20 22 24 24 26 27 28 31 32 35 37 39 43 46 47 49 48 48
4 6 8 8 7 8 8 11 14 9 8 8 9 9 8 5 5 3 5 6 5 7 9 11 14 17 20 23 27 30 33 35 38 40 42 44 46 49 49 49 49 49 52 55
7 6 8 8 8 9 11 13 15 15 13 11 10 7 8 8 7 7 10 13 15 17 20 22 24 28 31 33 36 38 42 44 47 50 53 55 56 57 60 61 60 60 60 58
7 7 9 10 11 11 11 13 14 15 15 14 14 15 15 14 15 17 19 21 23 25 27 29 31 33 37 40 42 44 49 52 53 56 60 66 65 67 70 71 70 70 69 67
8 8 9 9 10 10 11 10 11 12 13 15 15 14 16 19 21 23 25 28 29 31 33 36 39 43 47 51 53 54 60 60 64 69 72 73 76 80 81 82 81 80 77 74
7 8 8 9 9 9 9 10 11 13 15 17 18 18 18 20 23 25 27 29 32 35 37 40 44 50 55 58 60 66 71 74 80 85 86 88 91 96 96 93 91 85 84 81
8 9 8 9 9 10 11 13 14 16 17 18 20 21 22 24 27 29 31 34 37 40 42 46 50 54 59 63 67 71 76 83 89 92 96 98 97 95 94 92 90 86 84 80
10 10 11 11 12 12 13 14 16 19 20 21 21 23 25 28 31 33 35 38 41 45 47 52 56 61 64 69 76 81 86 91 96 100 98 97 95 90 86 81 76 73 70 68
11 11 12 13 14 14 14 15 18 20 22 23 23 25 27 30 33 36 39 42 46 49 54 58 63 68 74 78 84 91 96 100 100 96 89 79 70 64 60 59 58 59 59 59
14 15 15 15 16 16 16 18 19 21 23 25 26 29 31 34 37 40 44 47 50 55 59 64 70 76 82 88 94 98 99 91 81 74 67 60 55 51 50 50 49 48 50 53
17 18 19 19 19 20 20 21 22 24 26 28 29 32 35 39 42 45 49 52 57 60 66 71 77 83 89 93 96 92 83 74 69 66 62 57 53 50 48 46 44 42 41 44
21 21 22 23 23 24 25 26 26 27 28 31 33 36 39 42 47 50 53 58 61 66 72 77 83 88 90 91 87 83 80 76 72 69 67 62 56 52 48 47 44 42 40 39
25 24 25 25 26 28 29 30 31 32 33 33 36 40 43 47 51 54 58 62 66 71 76 83 88 88 86 85 85 84 80 75 72 69 68 65 60 55 52 48 44 44 43 39
27 28 27 28 29 30 31 33 34 35 36 37 38 41 45 50 54 57 61 66 70 76 82 87 88 85 80 72 66 63 60 57 54 54 54 55 55 54 53 51 49 45 45 45
30 30 30 30 32 32 33 35 37 38 38 40 41 44 48 53 57 60 65 70 75 80 86 87 84 75 59 52 56 54 49 45 42 40 40 41 43 45 46 46 46 46 46 48
33 33 32 32 32 35 35 36 38 39 40 42 45 47 51 56 60 64 69 74 77 83 84 82 74 56 52 55 54 50 45 39 35 32 31 31 31 32 35 37 39 41 44 48
34 34 34 34 34 35 37 38 39 40 41 44 47 49 53 58 62 65 71 75 79 83 82 75 63 52 53 55 51 46 42 36 31 29 27 26 26 27 28 30 32 34 38 42
34 34 35 35 36 37 38 38 39 40 42 44 48 50 55 59 63 67 72 76 80 79 74 66 55 50 55 54 49 45 41 37 33 29 27 26 24 23 22 23 25 28 31 34
35 35 35 36 38 39 39 39 41 41 42 44 48 52 56 60 64 68 73 76 77 75 69 60 49 51 54 50 46 44 41 38 35 32 29 26 22 20 20 20 20 20 24 28
36 37 37 39 39 39 40 41 44 41 42 44 47 51 55 60 64 68 71 73 72 66 66 54 48 52 50 47 47 45 39 36 33 31 29 28 27 23 20 18 16 15 16 18
38 37 38 42 40 40 40 43 42 39 41 43 47 51 55 60 64 68 70 70 67 63 59 47 49 51 49 48 46 42 36 33 31 28 26 25 23 23 23 20 16 13 12 12
41 41 44 45 45 45 44 42 39 38 39 42 46 51 55 59 62 63 64 64 61 61 52 45 50 49 49 48 45 40 35 31 30 27 26 23 21 19 18 20 21 20 18 17
40 45 49 48 48 45 40 42 39 37 38 41 45 50 54 59 62 62 62 60 59 60 47 44 48 48 49 46 42 39 33 29 27 26 24 22 19 15 15 14 13 14 17 19
49 48 48 47 47 41 42 42 38 35 37 40 45 49 53 57 57 59 56 55 57 55 40 42 44 47 47 42 40 37 33 30 28 26 25 22 18 16 14 12 11 11 11 12
45 46 47 50 44 40 41 41 36 34 36 40 45 49 53 56 56 56 52 53 55 50 35 38 41 44 43 41 38 34 30 28 26 24 22 19 15 12 8 7 7 9 12 18
45 47 48 46 38 40 40 39 33 31 36 41 45 49 52 54 53 52 48 50 52 45 30 32 35 38 40 39 37 35 33 31 28 23 20 19 20 23 24 26 27 28 30 32
Wind_Direction
74 75 61 47 45 51 62 67 73 89 95 95 97 105 116 116 131 156 208 246 254 259 255 258 263 276 279 280 281 280 280 281 277 274 274 277 276 273 268 265 266 263 261 258
58 29 17 5 10 6 24 47 69 76 87 99 121 130 141 152 168 219 270 277 276 269 272 278 278 275 276 274 276 280 280 279 280 281 281 279 280 276 274 273 271 270 268 267
340 343 351 8 356 11 29 78 87 83 68 75 86 87 95 122 158 185 239 236 271 290 295 298 298 305 303 304 304 302 302 299 297 296 294 292 292 291 288 283 278 273 269 266
345 10 17 37 41 44 48 40 36 46 58 63 57 54 37 31 16 359 343 337 328 318 317 318 318 310 307 304 297 296 295 295 294 292 290 289 286 285 285 283 280 277 275 270
32 32 30 36 37 33 33 32 23 14 15 14 11 3 0 352 345 339 333 327 323 318 314 309 302 301 299 295 290 293 287 284 285 283 283 282 283 284 282 279 278 278 275 273
20 10 13 20 16 20 19 21 8 4 2 356 0 355 350 344 340 334 328 323 321 318 313 309 308 305 302 298 296 296 295 292 291 290 287 285 284 283 280 277 275 273 272 272
1 356 352 2 6 6 6 6 0 358 354 349 346 344 337 333 329 325 321 316 312 308 306 305 305 306 303 303 304 302 301 297 291 289 287 285 283 281 280 281 281 279 276 274
355 353 353 354 357 355 352 355 353 349 348 344 340 335 331 326 322 321 317 314 311 309 308 306 305 304 302 299 296 293 291 289 288 288 286 282 282 283 282 283 282 281 280 278
346 344 344 344 344 343 343 345 343 339 338 335 332 329 325 323 321 318 316 315 312 310 308 304 301 300 299 297 295 294 292 290 289 286 289 290 290 288 285 283 278 274 268 264
324 325 325 326 330 330 326 325 326 327 328 325 321 320 321 319 316 315 313 311 309 308 306 304 303 301 301 300 298 296 292 288 289 293 291 289 288 286 282 278 275 270 265 255
301 306 307 308 305 309 310 308 307 312 315 316 315 315 317 318 316 313 312 312 311 311 309 308 307 306 304 302 298 294 293 297 296 292 291 289 285 281 278 277 275 272 266 258
291 294 297 301 298 297 297 300 300 301 306 309 310 311 313 314 313 313 312 313 312 312 312 311 310 309 306 301 298 299 299 296 293 290 288 286 281 278 277 274 273 272 270 262
285 287 289 292 294 293 293 296 299 299 301 305 308 308 310 311 312 312 313 313 314 315 315 314 313 311 306 303 303 300 296 292 288 285 283 282 279 275 271 272 269 267 265 263
280 281 282 286 289 291 292 294 296 299 301 302 305 305 308 310 311 314 314 314 317 317 317 317 317 313 309 309 304 301 298 293 287 281 277 276 276 273 270 266 265 265 261 255
276 277 279 282 286 290 291 293 295 298 299 300 302 304 307 310 312 314 315 318 320 319 321 321 318 316 315 313 313 312 306 299 291 284 279 275 272 270 268 266 263 255 253 256
273 273 275 280 284 287 291 294 295 297 299 300 302 306 310 312 314 315 319 321 322 324 325 323 322 322 321 325 326 328 327 317 305 296 287 280 274 270 266 262 257 252 245 243
267 271 275 278 283 287 291 294 297 298 300 301 304 308 312 313 315 319 322 324 325 328 327 326 326 322 323 327 326 327 330 332 322 312 301 291 283 276 270 263 257 250 244 241
263 267 271 276 280 285 289 293 297 298 300 302 305 309 312 315 318 322 325 327 329 329 330 328 327 324 328 330 328 325 326 328 327 320 314 309 299 288 279 270 262 253 247 243
260 264 269 275 280 284 287 293 297 298 300 303 306 311 313 317 321 325 327 331 332 333 331 331 326 328 331 330 328 324 321 320 320 324 326 315 305 300 293 282 271 261 252 247
258 263 267 274 280 284 288 293 297 298 301 305 308 312 316 320 324 328 330 334 334 335 332 331 329 332 333 330 328 327 325 321 315 312 313 310 312 310 300 290 281 268 256 248
258 261 268 274 278 282 288 293 296 297 301 305 311 315 319 324 327 331 333 334 336 335 335 332 333 336 335 331 329 328 325 323 319 314 309 304 301 296 291 290 283 270 261 252
263 265 269 275 279 282 286 292 293 297 301 307 313 318 322 326 330 332 335 336 336 337 337 332 337 338 338 336 335 334 331 328 327 323 317 310 303 296 284 275 275 268 264 249
261 266 271 274 277 280 286 292 292 296 303 310 316 320 325 328 332 334 335 336 337 338 337 335 340 341 342 340 339 338 334 331 333 331 325 321 316 304 292 271 259 254 253 257
259 263 271 280 282 287 293 292 291 298 306 313 318 322 327 331 333 336 336 336 339 340 337 339 342 343 346 343 341 341 340 336 334 335 333 325 316 307 299 292 283 265 253 249
263 269 276 280 285 294 293 291 291 301 309 315 320 324 329 332 333 335 335 337 341 341 336 341 344 346 349 349 348 347 346 345 343 340 336 335 325 313 303 291 277 266 250 228
272 273 277 283 291 292 292 290 292 303 311 317 321 326 330 332 334 335 337 339 341 340 337 344 347 348 353 357 359 1 1 2 4 5 3 0 4 13 30 57 86 107 125 138
272 275 278 289 293 291 293 290 294 307 314 318 322 327 330 332 334 335 338 339 340 339 337 348 349 353 357 0 3 9 16 18 19 25 35 52 67 77 83 88 94 102 112 122